Weather History for Columbia Airport, CA

Change the Weather History Date:

Wednesday, April 2, 2014

  Actual Average (KMOD) Record (KMOD)
Temperature  
Mean Temperature 44 °F -  
Max Temperature 55 °F 71 °F 87 °F (1985)
Min Temperature 32 °F 47 °F 36 °F (1936)
Degree Days  
Heating Degree Days 22 6  
Month to date heating degree days 12  
Since 1 July heating degree days 2017  
Cooling Degree Days 0 0  
Month to date cooling degree days 0  
Year to date cooling degree days 5  
Moisture  
Dew Point 39 °F    
Average Humidity 86    
Maximum Humidity 100    
Minimum Humidity 63    
Precipitation  
Precipitation 0.07 in 0.04 in 2.01 in (1958)
Month to date precipitation 0.08  
Year to date precipitation 7.11  
Since 1 July precipitation 11.47  
Snow  
Snow 0.00 in - - ()
Month to date snowfall  
Since 1 July snowfall  
Snow Depth -    
Sea Level Pressure  
Sea Level Pressure 29.99 in    
Wind  
Wind Speed 2 mph (WNW)    
Max Wind Speed 10 mph    
Max Gust Speed -    
Visibility 10 miles    
Events      
T = Trace of Precipitation, MM = Missing Value Source: NWS Daily Summary

Daily Weather History Graph

Daily Weather History Graph

Search for Another Location

Airport:

Trip Planner

Search our weather history database for the weather conditions in past years. The results will help you decide how hot, cold, wet, or windy it might be!

Date:

Astronomy

Apr. 02, 2014 Rise Set
Actual Time 6:45 AM PDT 7:25 PM PDT
Civil Twilight 6:18 AM PDT 7:52 PM PDT
Nautical Twilight 5:47 AM PDT 8:23 PM PDT
Astronomical Twilight 5:15 AM PDT 8:56 PM PDT
Moon 8:35 AM PDT (4/2) 10:50 PM PDT (4/2)
Length of Visible Light 13h 33m
Length of Day
12h 40m
Waxing Crescent, 11% of the Moon is Illuminated
Apr 2
Waxing Crescent
Apr 7
First Quarter
Apr 15
Full
Apr 22
Last Quarter
Apr 28
New

Hourly Weather History & Observations

Time (PDT) Temp. Windchill Dew Point Humidity Pressure Visibility Wind Dir Wind Speed Gust Speed Precip Events Conditions
12:15 AM 35.6 °F - 35.6 °F 100% 29.87 in 2.0 mi Calm Calm - 0.04 in   Mostly Cloudy
12:35 AM 35.6 °F - 35.6 °F 100% 29.88 in 4.0 mi Calm Calm - 0.06 in   Mostly Cloudy
12:55 AM 35.6 °F - 35.6 °F 100% 29.88 in 10.0 mi Calm Calm - 0.06 in   Overcast
1:15 AM 35.6 °F - 35.6 °F 100% 29.88 in 10.0 mi Calm Calm - N/A   Overcast
1:35 AM 37.4 °F 33.8 °F 35.6 °F 93% 29.88 in 10.0 mi East 4.6 mph - 0.01 in   Overcast
1:55 AM 37.4 °F - 35.6 °F 93% 29.88 in 10.0 mi Calm Calm - 0.01 in   Overcast
2:15 AM 35.6 °F - 35.6 °F 100% 29.88 in 10.0 mi Calm Calm - N/A   Mostly Cloudy
2:35 AM 35.6 °F - 35.6 °F 100% 29.88 in 10.0 mi Calm Calm - N/A   Mostly Cloudy
2:55 AM 35.6 °F - 35.6 °F 100% 29.88 in 10.0 mi Calm Calm - N/A   Mostly Cloudy
3:15 AM 35.6 °F - 35.6 °F 100% 29.88 in 10.0 mi Calm Calm - N/A   Overcast
3:35 AM 35.6 °F - 35.6 °F 100% 29.88 in 10.0 mi Calm Calm - N/A   Overcast
3:55 AM 33.8 °F - 33.8 °F 100% 29.88 in 10.0 mi Calm Calm - N/A   Overcast
5:35 AM 32.0 °F - 32.0 °F 100% 29.90 in 10.0 mi Calm Calm - N/A   Mostly Cloudy
5:55 AM 32.0 °F - 32.0 °F 100% 29.90 in 10.0 mi Calm Calm - N/A   Mostly Cloudy
6:15 AM 32.0 °F - 32.0 °F 100% 29.92 in 8.0 mi Calm Calm - N/A   Partly Cloudy
6:55 AM 32.0 °F - 32.0 °F 100% 29.94 in 9.0 mi Calm Calm - N/A   Clear
7:15 AM 32.0 °F - 32.0 °F 100% 29.95 in 10.0 mi Calm Calm - N/A   Mostly Cloudy
7:35 AM 37.4 °F - 37.4 °F 100% 29.96 in 10.0 mi Calm Calm - N/A   Overcast
7:55 AM 39.2 °F - 39.2 °F 100% 29.96 in 10.0 mi Calm Calm - N/A   Overcast
8:15 AM 39.2 °F - 39.2 °F 100% 29.97 in 10.0 mi Calm Calm - N/A   Overcast
8:35 AM 39.2 °F - 39.2 °F 100% 29.97 in 10.0 mi Calm Calm - N/A   Overcast
8:55 AM 41.0 °F - 39.2 °F 93% 29.97 in 10.0 mi Calm Calm - N/A   Mostly Cloudy
9:15 AM 41.0 °F - 39.2 °F 93% 29.98 in 10.0 mi Calm Calm - N/A   Mostly Cloudy
9:35 AM 41.0 °F - 39.2 °F 93% 29.99 in 10.0 mi Calm Calm - N/A   Partly Cloudy
9:55 AM 44.6 °F - 41.0 °F 87% 30.00 in 10.0 mi Calm Calm - N/A   Mostly Cloudy
10:35 AM 44.6 °F 41.4 °F 41.0 °F 87% 30.01 in 10.0 mi NW 5.8 mph - N/A   Overcast
10:55 AM 44.6 °F - 39.2 °F 81% 30.02 in 10.0 mi Calm Calm - N/A   Overcast
11:15 AM 48.2 °F - 41.0 °F 76% 30.02 in 10.0 mi Calm Calm - N/A   Scattered Clouds
11:35 AM 46.4 °F 44.3 °F 41.0 °F 81% 30.02 in 10.0 mi West 4.6 mph - N/A   Mostly Cloudy
12:15 PM 48.2 °F - 41.0 °F 76% 30.01 in 10.0 mi WSW 3.5 mph - N/A   Mostly Cloudy
12:35 PM 48.2 °F - 41.0 °F 76% 30.02 in 10.0 mi West 4.6 mph - N/A   Overcast
12:55 PM 51.8 °F - 41.0 °F 67% 30.01 in 10.0 mi SSW 4.6 mph - N/A   Mostly Cloudy
1:15 PM 53.6 °F - 42.8 °F 67% 30.02 in 10.0 mi NW 4.6 mph - N/A   Mostly Cloudy
1:35 PM 53.6 °F - 42.8 °F 67% 30.02 in 10.0 mi SW 8.1 mph - N/A   Scattered Clouds
1:55 PM 51.8 °F - 41.0 °F 67% 30.02 in 10.0 mi WNW 9.2 mph - N/A   Mostly Cloudy
2:15 PM 51.8 °F - 41.0 °F 67% 30.02 in 10.0 mi West 6.9 mph - N/A   Overcast
2:55 PM 53.6 °F - 42.8 °F 67% 30.02 in 10.0 mi West 8.1 mph - N/A   Scattered Clouds
3:15 PM 50.0 °F - 41.0 °F 71% 30.02 in 10.0 mi West 8.1 mph - N/A   Mostly Cloudy
3:35 PM 53.6 °F - 42.8 °F 67% 30.02 in 10.0 mi West 9.2 mph - N/A   Mostly Cloudy
3:55 PM 55.4 °F - 42.8 °F 63% 30.02 in 10.0 mi WNW 9.2 mph - N/A   Overcast
4:15 PM 53.6 °F - 42.8 °F 67% 30.02 in 10.0 mi West 6.9 mph - N/A   Overcast
4:35 PM 51.8 °F - 41.0 °F 67% 30.02 in 10.0 mi West 8.1 mph - N/A   Overcast
4:55 PM 51.8 °F - 41.0 °F 67% 30.02 in 10.0 mi NW 5.8 mph - N/A   Mostly Cloudy
5:15 PM 51.8 °F - 41.0 °F 67% 30.02 in 10.0 mi NW 6.9 mph - N/A   Mostly Cloudy
5:35 PM 51.8 °F - 42.8 °F 71% 30.02 in 10.0 mi West 10.4 mph - N/A   Overcast
5:55 PM 50.0 °F - 41.0 °F 71% 30.02 in 10.0 mi West 10.4 mph - N/A   Overcast
6:15 PM 50.0 °F - 41.0 °F 71% 30.03 in 10.0 mi West 8.1 mph - N/A   Overcast
6:35 PM 50.0 °F - 41.0 °F 71% 30.02 in 10.0 mi West 8.1 mph - N/A   Overcast
6:55 PM 50.0 °F - 41.0 °F 71% 30.03 in 10.0 mi WNW 6.9 mph - N/A   Overcast
7:15 PM 46.4 °F 44.3 °F 41.0 °F 81% 30.03 in 10.0 mi WNW 4.6 mph - N/A   Mostly Cloudy
7:35 PM 46.4 °F 43.5 °F 41.0 °F 81% 30.03 in 10.0 mi NW 5.8 mph - N/A   Mostly Cloudy
7:55 PM 44.6 °F 43.1 °F 41.0 °F 87% 30.05 in 10.0 mi NW 3.5 mph - N/A   Overcast
8:15 PM 44.6 °F 42.2 °F 39.2 °F 81% 30.06 in 10.0 mi NW 4.6 mph - N/A   Scattered Clouds
8:35 PM 44.6 °F 43.1 °F 39.2 °F 81% 30.06 in 10.0 mi North 3.5 mph - N/A   Scattered Clouds
8:55 PM 42.8 °F - 39.2 °F 87% 30.06 in 10.0 mi Calm Calm - N/A   Overcast
9:15 PM 41.0 °F 39.0 °F 39.2 °F 93% 30.06 in 10.0 mi NE 3.5 mph - N/A   Overcast
9:35 PM 41.0 °F 39.0 °F 39.2 °F 93% 30.06 in 10.0 mi NE 3.5 mph - N/A   Partly Cloudy
9:55 PM 39.2 °F 37.0 °F 39.2 °F 100% 30.07 in 10.0 mi East 3.5 mph - N/A   Clear
10:15 PM 39.2 °F - 39.2 °F 100% 30.07 in 10.0 mi Calm Calm - N/A   Clear
10:35 PM 39.2 °F - 37.4 °F 93% 30.07 in 10.0 mi Calm Calm - N/A   Clear
10:55 PM 37.4 °F - 37.4 °F 100% 30.07 in 10.0 mi Calm Calm - N/A   Clear
11:15 PM 37.4 °F 33.8 °F 37.4 °F 100% 30.07 in 10.0 mi NE 4.6 mph - N/A   Clear
11:35 PM 37.4 °F - 37.4 °F 100% 30.07 in 10.0 mi Calm Calm - N/A   Clear
11:55 PM 37.4 °F - 37.4 °F 100% 30.07 in 10.0 mi Calm Calm - N/A   Clear